Home   Weather   Mostar   Past weeks

Flag for Bosnia-Herzegovina Past Weather in Mostar, Bosnia-Herzegovina — Yesterday and Last 2 Weeks

Now
46 °F

Scattered clouds.


Feels Like: 46 °F
Forecast: 28 / 51 °F
Wind: 1 mph from North

Location: Mostar

Current Time: Dec 6, 2016 at 11:17:07 am

Latest Report: Dec 6, 2016 at 10:30 am


Visibility: 4 mi

Pressure: 30.33 "Hg

Humidity: 62%

Dew Point: 34 °F

Location of MostarLocation

Past Weather in Mostar — Graph

°F

Mostar Temperature Yesterday

Maximum temperature yesterday: 57 °F (at 1:30 pm)
Minimum temperature yesterday: 28 °F (at 6:00 am)
Average temperature yesterday: 43 °F

High & Low Weather Summary for the Past Weeks

 TemperatureHumidityPressure
High72 °F (Nov 21, 2:00 pm)100% (Nov 21, 11:00 pm)30.36 "Hg (Nov 21, 11:00 pm)
Low27 °F (Dec 2, 2:00 am)25% (Dec 4, 12:00 pm)29.77 "Hg (Nov 28, 5:00 am)
Average46 °F70%30.13 "Hg
* Reported Nov 21 10:00 am — Dec 6 10:00 am, Mostar, Weather by CustomWeather, © 2016

Note: Actual official high and low records may vary slightly from our data, if they occured in-between our weather recording intervals... More about our weather records

Advertising

Mostar Weather History for the Previous 24 Hours

Scroll right to see more
 ConditionsComfort  
Time TempWeatherWind HumidityBarometerVisibility
10:00 am
Tue, Dec 6
45 °FScattered clouds.2 mph66%30.36 "Hg4 mi
9:30 am45 °FScattered clouds.3 mph71%30.33 "Hg4 mi
9:00 am43 °FFog.1 mph71%30.33 "Hg3 mi
8:30 am41 °FFog.5 mph76%30.33 "Hg3 mi
8:00 am39 °FFog.2 mph81%30.33 "Hg3 mi
7:30 am39 °FFog.1 mph81%30.33 "Hg2 mi
7:00 am39 °FFog.1 mph81%30.33 "Hg3 mi
6:30 am39 °FPassing clouds.2 mph81%30.33 "HgN/A
6:00 am37 °FPassing clouds.2 mph87%30.33 "HgN/A
5:00 am39 °FPassing clouds.2 mph81%30.33 "HgN/A
4:00 am39 °FPassing clouds.2 mph75%30.33 "HgN/A
3:00 am39 °FClear.2 mph81%30.33 "Hg10 mi
2:00 am39 °FClear.3 mph81%30.33 "Hg10 mi
1:00 am39 °FClear.2 mph81%30.33 "Hg10 mi
12:00 am39 °FClear.2 mph75%30.36 "Hg10 mi
11:00 pm
Mon, Dec 5
39 °FClear.2 mph75%30.36 "Hg10 mi
10:00 pm39 °FClear.5 mph75%30.36 "Hg10 mi
9:00 pm41 °FClear.2 mph70%30.33 "Hg10 mi
8:00 pm41 °FClear.5 mph70%30.33 "Hg10 mi
7:00 pm45 °FClear.2 mph57%30.33 "Hg10 mi
6:30 pm43 °FClear.1 mph57%30.33 "Hg10 mi
6:00 pm41 °FClear.3 mph61%30.33 "Hg10 mi
5:30 pm43 °FClear.3 mph57%30.33 "Hg10 mi
5:00 pm46 °FClear.2 mph50%30.33 "Hg10 mi
4:30 pm50 °FClear.1 mph43%30.30 "Hg10 mi
4:00 pm54 °FSunny.2 mph35%30.30 "Hg10 mi
3:30 pm55 °FSunny.3 mph31%30.30 "Hg10 mi
3:00 pm55 °FPassing clouds.2 mph33%30.30 "HgN/A
2:30 pm57 °FPassing clouds.2 mph31%30.30 "HgN/A
2:00 pm57 °FPassing clouds.2 mph31%30.30 "HgN/A
1:30 pm57 °FPassing clouds.3 mph31%30.33 "HgN/A
1:00 pm55 °FPassing clouds.1 mph33%30.33 "HgN/A
12:30 pm54 °FPassing clouds.2 mph38%30.33 "HgN/A
12:00 pm52 °FPassing clouds.2 mph38%30.33 "HgN/A
11:30 am52 °FPassing clouds.2 mph35%30.33 "HgN/A
11:00 am50 °FPassing clouds.3 mph37%30.36 "HgN/A
Weather by CustomWeather, © 2016

See weather overviewHow to use our weather pages